Probability
0 0 0 0 0 0 0 0 0 0 0 0 2 4 7 7 4 3 3 7 14 17 16 16 18 16 12 8 7 8 10 11 10 9 9 8 7 5 4 3 2 1 0 0 0 0 0 0 0
0 0 0 0 0 0 0 0 0 0 0 1 3 6 10 9 6 3 4 10 18 21 20 20 23 23 19 14 10 10 11 10 9 9 9 8 6 4 3 2 1 0 0 0 0 0 0 0 0
0 0 0 0 0 0 0 0 0 0 0 1 4 8 11 11 8 6 12 21 25 25 22 25 30 33 30 23 17 14 13 11 9 9 9 7 5 3 2 1 0 0 0 0 0 0 0 0 0
0 0 0 0 0 0 0 0 0 0 1 3 7 11 14 16 16 20 32 39 36 29 27 31 38 41 38 32 25 22 19 16 12 10 9 6 3 2 1 1 0 0 0 0 0 0 0 0 0
0 0 0 0 0 0 0 0 0 0 1 5 12 19 23 28 36 45 50 50 45 41 40 42 45 47 45 40 35 33 28 22 17 14 11 7 4 2 0 0 0 0 0 0 0 0 0 0 0
0 0 0 0 0 0 0 0 0 0 2 7 16 26 34 43 54 58 54 50 50 54 55 52 48 47 47 46 45 44 40 31 24 20 16 13 8 4 1 1 0 0 0 0 0 0 0 0 0
0 0 0 0 0 0 0 0 0 1 4 10 20 31 41 50 58 59 55 53 56 61 62 56 47 42 43 46 49 51 47 41 33 28 22 16 11 7 4 3 1 0 0 0 0 0 0 0 0
0 0 0 0 0 0 0 0 1 4 9 15 25 36 45 53 61 66 64 64 64 62 61 58 50 43 42 44 47 49 47 45 40 35 29 21 15 11 8 6 2 0 0 0 0 0 0 0 0
0 0 0 0 0 0 0 1 3 8 13 20 30 41 49 58 70 76 75 73 70 63 58 57 54 50 46 43 44 46 47 46 44 41 36 29 21 15 12 7 2 0 0 0 0 0 1 1 1
0 0 0 0 0 0 0 1 4 9 16 23 33 43 52 63 74 78 75 73 70 63 55 54 55 53 49 46 46 47 47 47 46 44 38 30 22 16 12 9 6 3 1 0 0 0 0 1 1
0 0 0 0 0 0 0 1 5 11 17 23 31 41 50 59 67 70 69 69 68 61 53 50 51 51 49 49 51 50 48 45 42 39 34 26 18 13 11 12 13 11 6 3 2 1 0 0 1
0 0 0 0 0 0 1 2 7 12 17 23 30 39 45 47 51 56 61 64 64 59 50 45 45 44 44 48 51 50 46 41 35 32 29 22 15 10 8 11 15 15 12 7 4 2 1 0 0
0 0 0 0 0 1 2 4 7 12 18 24 32 40 43 41 40 45 53 58 58 55 50 44 40 35 36 42 45 43 39 35 30 28 24 17 11 6 5 8 12 14 12 7 4 2 1 0 0
0 0 0 0 0 1 3 6 7 12 21 28 33 38 41 40 38 41 47 51 50 48 47 43 37 31 30 35 35 32 30 28 25 21 17 11 6 3 2 5 9 10 8 4 2 1 1 0 0
0 0 0 0 0 1 3 4 7 14 24 30 33 36 37 37 36 38 41 44 44 41 38 37 36 32 29 28 27 23 23 21 17 13 9 5 3 2 1 3 5 5 5 3 1 0 0 0 0
0 0 0 0 0 0 1 3 7 16 25 33 37 37 34 31 30 32 36 39 39 35 30 29 32 32 28 25 20 17 18 14 9 6 5 2 1 1 1 2 1 2 3 2 1 0 0 0 0
0 0 0 0 0 1 2 6 11 19 29 37 39 37 33 27 25 27 31 35 34 30 27 24 26 28 26 22 16 15 15 11 6 4 5 3 1 1 2 2 1 1 2 1 0 0 0 0 0
0 0 0 0 0 1 5 11 18 24 31 37 37 34 32 28 24 24 26 28 29 26 22 19 18 21 21 15 12 12 12 10 7 6 7 5 3 2 3 3 3 3 2 1 0 0 0 0 0
0 0 0 0 0 1 5 14 20 25 29 31 31 31 32 30 25 23 23 24 26 24 20 15 13 14 14 10 9 10 10 9 9 8 7 6 5 5 4 4 3 3 2 1 0 0 0 0 0
0 0 0 0 0 0 5 11 16 21 26 27 28 30 30 27 24 22 21 21 23 23 19 14 11 11 11 9 8 9 9 9 9 7 5 4 5 6 6 5 3 2 2 1 0 0 0 0 0
0 0 0 0 0 0 3 7 11 18 25 27 27 27 24 20 19 18 17 16 17 18 17 14 11 10 9 10 10 10 8 8 7 5 3 3 4 4 5 4 2 1 1 0 0 0 0 0 0
0 0 0 0 0 0 1 3 7 15 23 25 24 21 16 12 10 11 11 11 11 12 12 11 10 9 8 9 11 9 7 6 5 4 3 3 3 3 4 3 1 0 0 0 0 0 0 0 0
0 0 0 0 0 0 0 0 3 9 16 19 18 15 11 7 5 5 7 7 8 9 9 9 7 6 6 8 8 7 6 4 4 3 3 3 3 3 2 2 1 0 0 0 0 0 0 0 0
0 0 0 0 0 0 0 0 1 4 8 12 12 10 7 5 3 3 4 5 6 7 7 5 4 4 4 5 5 5 4 3 3 3 3 3 2 1 1 1 0 0 0 0 0 0 0 0 0
0 0 0 0 0 0 0 0 0 1 4 7 6 5 4 3 3 3 3 4 5 5 3 2 2 3 3 3 3 3 3 3 3 3 3 2 1 0 0 0 0 0 0 0 0 0 0 0 0
0 0 0 0 0 0 0 0 0 0 1 2 2 1 1 2 2 2 2 3 3 2 1 0 1 2 3 2 2 2 3 3 3 2 1 1 0 0 0 0 0 0 0 0 0 0 0 0 0
0 0 0 0 0 0 0 0 0 0 0 0 0 0 0 0 0 1 1 1 1 0 0 0 1 2 3 2 1 2 3 2 2 1 0 0 0 0 0 0 0 0 0 0 0 0 0 0 0
0 0 0 0 0 0 0 0 0 0 0 0 0 0 0 0 0 0 0 0 0 0 0 0 1 2 2 1 1 1 1 1 1 0 0 0 0 0 0 0 0 0 0 0 0 0 0 0 0
0 0 0 0 0 0 0 0 0 0 0 0 0 0 0 0 0 0 0 0 0 0 0 0 0 1 1 0 0 0 0 0 0 0 0 0 0 0 0 0 0 0 0 0 0 0 0 0 0
0 0 0 0 0 0 0 0 0 0 0 0 0 0 0 0 0 0 0 0 0 0 0 0 0 0 0 0 0 0 0 0 0 0 0 0 0 0 0 0 0 0 0 0 0 0 0 0 0
Wind_Speed
6 5 0 3 5 3 5 7 4 6 3 1 3 7 7 5 5 5 4 12 14 14 13 15 17 17 17 17 17 17 17 17 17 16 16 16 16 15 14 14 13 12 12 12 12 12 12 12 12
3 2 3 4 4 1 8 6 5 7 5 3 4 6 7 4 4 7 6 11 16 15 12 14 18 18 17 17 17 17 17 17 16 16 16 15 15 14 14 13 13 12 11 11 11 11 11 11 11
3 0 3 4 3 6 8 5 5 6 3 3 4 3 5 7 6 7 9 15 15 14 11 14 20 18 18 18 17 17 17 17 16 16 16 15 14 13 13 13 12 12 11 10 10 10 10 9 9
2 4 4 3 7 9 8 10 8 8 4 1 5 5 4 6 7 8 15 18 16 13 11 14 19 19 18 18 18 17 17 17 16 16 15 14 14 13 12 12 12 11 11 10 10 9 9 8 7
3 4 2 2 8 9 9 12 10 8 5 2 6 6 3 2 9 15 17 16 15 12 10 12 17 18 18 18 17 16 17 16 16 15 15 14 13 12 12 12 12 11 11 10 10 9 8 7 6
4 5 3 4 9 9 8 9 9 7 4 2 5 6 2 4 12 14 15 14 14 13 10 9 16 18 17 17 17 16 15 15 15 14 14 13 12 12 12 11 11 10 10 10 9 8 7 6 5
4 4 3 5 7 10 11 8 5 4 3 2 5 7 3 4 9 13 13 13 12 13 11 8 9 11 15 15 15 15 15 14 14 14 14 13 13 12 12 11 11 10 10 10 9 9 7 6 4
5 4 2 3 5 8 8 7 3 1 3 3 5 8 5 6 9 12 11 11 11 10 10 9 7 7 7 9 14 15 15 15 14 15 15 14 14 13 13 10 10 11 10 10 9 9 8 6 5
5 3 4 5 4 7 7 7 7 3 6 6 5 5 7 11 12 12 10 9 9 9 7 8 7 6 6 6 10 12 13 13 13 12 14 12 6 6 7 10 11 11 11 10 9 8 7 6 5
5 4 9 7 5 5 6 5 5 6 7 6 8 10 10 12 12 12 10 9 8 8 6 6 7 7 6 6 6 4 6 6 5 5 6 4 4 4 7 9 12 12 10 9 9 9 7 5 2
5 8 9 9 8 5 3 5 5 5 5 3 7 8 10 11 10 9 8 7 7 7 6 5 5 6 6 3 4 3 3 3 3 4 5 4 3 3 4 3 5 6 7 4 5 5 3 2 2
4 8 8 8 7 3 1 1 5 5 2 3 7 10 11 10 8 7 8 7 7 8 6 5 4 4 4 3 4 3 3 3 3 3 4 3 2 3 3 3 3 3 2 3 2 2 3 3 3
5 9 9 8 5 3 1 1 2 2 2 6 10 11 10 9 8 8 8 8 7 7 7 4 4 4 3 3 3 4 3 3 3 3 4 4 3 3 3 3 3 4 3 3 3 3 3 2 2
5 5 6 4 3 2 1 0 3 1 4 8 11 11 9 9 8 8 9 8 6 5 5 5 4 4 4 2 1 2 3 3 3 2 3 4 3 3 3 3 3 3 4 3 3 3 3 2 2
3 4 6 4 2 2 3 3 2 5 6 9 10 10 10 9 10 9 7 6 5 4 4 4 5 5 5 4 2 2 2 3 2 1 1 2 2 3 3 3 3 4 3 3 2 2 2 2 2
5 4 5 8 4 4 4 4 5 3 9 10 9 9 9 8 9 7 7 6 5 4 4 2 4 5 5 4 3 2 3 3 2 1 0 1 2 2 3 3 3 3 3 3 3 2 3 2 3
4 2 5 9 5 3 5 5 3 5 11 10 9 8 8 8 8 7 7 7 6 4 3 3 4 5 6 6 3 2 3 3 2 1 0 0 0 0 2 3 3 4 3 3 4 3 4 4 5
4 3 4 5 6 2 4 4 4 5 11 10 8 8 8 9 7 7 7 7 6 5 4 5 5 4 4 5 4 2 3 2 2 1 0 1 1 1 2 2 3 4 3 3 4 5 4 5 6
4 5 6 7 5 2 5 6 4 5 9 9 7 7 9 9 8 8 8 7 7 6 6 5 5 3 2 3 4 3 2 2 2 2 3 3 1 1 1 1 2 3 3 3 5 5 6 5 5
6 6 6 6 3 3 6 5 3 4 6 7 8 8 9 9 8 8 9 9 8 7 5 5 4 2 2 2 2 2 3 3 3 3 4 5 4 3 2 2 2 2 3 3 4 4 4 3 3
5 5 5 4 3 4 5 3 2 3 6 8 8 9 8 9 8 8 9 9 8 8 6 5 4 3 3 3 4 4 4 3 3 4 4 5 5 5 4 4 3 3 3 3 3 4 5 4 2
5 6 3 0 3 2 2 1 2 2 5 7 7 7 7 8 8 8 8 8 8 8 7 7 7 6 5 4 5 5 4 4 4 3 4 5 6 6 6 5 5 4 3 4 4 4 4 5 4
6 3 1 2 2 1 2 2 3 2 4 5 6 7 7 7 7 8 8 8 8 8 7 6 7 7 7 6 6 7 7 6 5 5 7 6 6 7 7 7 6 6 5 6 6 6 5 4 4
3 4 6 6 5 2 2 2 2 1 3 6 6 8 7 7 7 8 8 7 7 8 7 7 7 8 7 7 7 8 8 8 8 7 6 5 5 6 8 8 7 7 6 7 7 7 8 6 7
4 6 5 5 5 3 2 2 1 1 2 7 9 8 7 7 7 8 8 8 8 8 8 7 8 9 8 8 8 8 8 8 8 7 6 6 5 5 7 7 7 7 7 8 8 8 8 7 8
2 8 7 4 4 4 2 1 0 2 6 9 10 9 9 8 8 8 7 7 7 8 8 7 8 8 8 8 8 8 8 6 6 7 6 6 5 5 6 7 8 8 8 8 8 8 8 7 8
2 2 6 7 2 1 2 1 1 5 7 8 10 10 9 8 8 8 7 7 7 7 7 7 7 8 8 8 8 8 8 7 8 7 7 6 5 5 7 7 8 8 8 8 8 8 7 7 7
4 4 5 5 3 2 2 4 5 8 9 8 9 9 8 7 8 7 7 6 7 7 7 7 8 8 7 7 7 8 8 8 7 7 8 7 7 6 7 7 8 8 8 8 8 7 7 8 6
2 2 4 3 4 5 4 5 5 11 12 12 10 10 9 9 8 7 6 6 6 7 7 7 7 8 8 8 7 8 8 8 8 8 8 7 7 7 7 7 7 8 8 7 7 7 7 8 7
3 4 6 4 3 4 4 5 2 7 10 12 11 11 9 9 8 7 6 6 6 6 6 7 7 7 7 7 7 8 8 8 8 8 7 7 7 7 7 7 8 8 8 7 7 8 8 8 8
Wind_Direction
307 297 127 60 54 38 255 251 259 297 294 289 87 104 109 111 144 172 188 158 148 151 158 159 154 150 146 142 138 134 131 128 126 124 121 119 117 116 116 117 117 119 121 122 121 120 119 118 118
305 308 55 65 93 262 267 253 253 254 220 156 94 101 96 83 111 126 137 159 150 151 154 158 156 152 150 147 142 140 138 136 134 131 129 126 124 123 122 123 124 124 125 126 125 125 123 122 121
284 283 89 91 161 202 245 260 267 277 231 157 121 96 114 136 139 148 157 148 144 149 153 159 158 155 153 150 148 146 144 142 141 139 136 134 132 130 130 130 131 131 131 132 131 131 129 128 127
37 47 55 97 242 237 237 270 285 288 280 175 124 102 103 147 155 147 141 143 142 148 152 158 159 157 155 154 154 153 150 149 149 147 144 142 140 138 138 138 138 139 138 138 139 139 137 136 134
68 79 66 285 261 261 259 267 265 256 244 180 123 119 93 80 116 130 138 141 143 145 148 156 158 158 157 157 158 157 155 154 154 153 150 149 147 147 147 146 146 147 147 147 148 147 145 146 145
56 73 105 253 268 279 279 267 262 241 221 143 113 116 103 122 126 137 141 142 142 142 140 149 158 159 160 161 160 159 158 158 157 156 155 154 154 155 154 154 154 154 154 154 154 155 155 156 157
120 112 194 240 278 291 289 283 250 206 136 133 129 110 110 134 139 139 137 133 132 135 136 140 152 161 163 162 162 161 161 161 161 160 160 160 161 162 161 161 161 161 161 163 165 167 169 170 177
147 105 275 272 276 283 292 314 309 96 120 114 107 125 159 168 135 125 121 119 121 126 135 140 142 145 154 161 165 165 165 165 165 165 165 167 168 169 169 166 169 170 172 173 175 177 182 187 199
114 86 253 251 251 272 307 339 338 16 80 65 70 110 147 135 123 117 113 110 119 126 132 138 140 140 148 158 167 166 168 169 169 170 172 170 168 168 171 176 177 179 181 183 184 187 192 201 218
115 169 235 229 229 264 304 335 340 26 48 55 60 66 96 112 119 124 127 134 135 134 138 140 145 145 155 167 159 158 164 164 164 167 171 166 162 173 177 184 186 187 188 190 194 200 204 209 231
174 206 239 255 251 248 301 344 6 56 38 65 107 104 100 102 105 110 119 122 126 131 132 135 145 149 158 160 151 156 151 154 158 165 169 169 169 180 182 176 190 190 189 188 199 206 203 200 215
227 253 243 251 253 240 239 8 20 44 105 106 110 111 100 95 98 105 108 106 110 111 106 117 136 144 154 150 158 160 158 161 166 179 177 170 176 186 182 183 182 176 173 177 188 192 206 219 218
241 254 261 255 255 236 157 83 88 63 102 83 88 89 92 95 93 95 96 94 97 97 97 117 132 140 137 138 172 175 171 169 170 176 183 178 180 185 184 189 183 182 175 179 195 199 203 208 208
253 263 274 270 266 255 127 357 88 173 108 81 79 80 81 88 92 88 90 91 88 89 102 118 119 119 114 111 145 166 154 154 155 167 185 184 183 182 184 185 181 185 183 182 194 192 181 181 161
311 324 317 298 275 245 86 344 252 188 115 92 89 86 80 80 85 90 106 118 110 100 101 119 132 127 125 122 105 102 112 108 108 144 192 191 189 191 190 185 186 191 183 183 177 168 147 148 135
1 2 311 292 282 254 130 244 252 171 113 103 104 97 89 76 76 86 93 101 102 107 109 101 120 120 119 110 91 107 111 110 104 86 101 222 206 203 189 191 196 192 174 174 166 152 144 135 110
0 313 282 296 282 227 154 206 217 136 113 114 112 105 96 82 68 64 71 82 91 93 91 90 95 115 123 119 120 127 115 101 107 88 22 228 148 181 202 202 199 185 171 168 174 151 145 131 117
258 271 289 290 295 125 146 162 155 123 117 120 119 113 101 86 68 61 63 71 77 74 76 78 79 96 117 120 117 110 101 100 84 77 115 124 146 188 201 187 184 174 159 162 150 142 135 130 124
246 275 285 282 286 117 135 134 135 116 114 120 120 111 101 89 77 66 62 61 62 57 61 66 71 75 110 128 128 132 118 104 85 59 53 54 52 97 112 112 131 141 137 146 142 136 128 123 127
246 264 279 295 322 93 110 110 112 112 127 131 122 108 102 98 82 65 57 53 49 43 46 56 54 56 86 125 129 124 117 90 77 55 49 38 36 50 77 76 85 98 104 111 125 133 131 128 137
253 230 242 261 341 42 98 48 61 70 91 92 95 99 97 97 84 66 56 48 44 37 35 47 39 48 64 105 114 111 97 89 71 53 49 36 38 47 61 70 74 76 94 108 118 132 137 138 103
254 249 226 187 68 333 90 200 275 126 104 103 99 92 88 85 79 67 58 50 44 36 33 45 38 42 44 69 107 110 106 100 83 75 65 50 43 45 51 62 69 73 82 97 100 99 116 127 127
218 233 102 96 113 36 12 127 281 105 120 128 118 105 93 86 79 70 59 54 49 40 36 42 48 45 42 53 81 96 98 99 93 83 72 59 47 46 49 55 64 66 68 75 75 83 89 94 108
173 67 38 42 66 28 276 148 274 292 177 150 129 112 99 90 79 71 61 53 50 47 42 44 54 52 50 58 69 90 104 105 99 87 78 64 52 44 44 56 61 64 64 65 69 72 78 80 85
87 84 32 1 12 262 284 121 226 340 113 138 135 117 101 93 82 70 58 51 45 45 43 44 55 57 56 64 69 78 88 92 92 90 82 75 62 53 41 50 57 59 63 64 66 69 69 70 78
197 138 157 195 223 264 329 157 183 63 96 107 115 115 103 91 80 73 64 59 53 49 45 45 54 60 58 66 68 70 77 83 83 83 83 76 69 60 54 57 60 61 63 66 67 69 67 68 71
131 159 166 142 162 215 262 181 183 126 115 117 121 114 105 97 90 80 68 60 56 55 50 49 55 62 61 66 75 73 73 79 84 81 77 74 70 69 63 64 65 63 63 66 71 73 70 70 69
143 146 87 106 150 240 250 220 206 182 169 150 135 127 118 109 98 89 78 69 63 60 56 54 58 63 59 61 73 81 75 75 77 79 76 72 66 63 63 63 66 65 64 65 70 72 70 72 65
42 86 115 130 163 169 223 250 215 183 171 161 149 139 132 123 112 102 90 81 74 68 64 62 60 62 62 62 68 75 74 73 72 73 72 71 68 64 62 61 62 64 64 65 71 71 70 70 63
175 191 153 155 226 180 185 257 345 154 149 147 141 136 130 123 118 112 103 94 84 75 70 66 65 67 65 66 70 73 72 72 71 68 67 69 68 65 65 63 60 63 62 62 69 75 71 73 71